TGL26FH KMIA-CYUL

Flight info

Callsign TGL26FH
Flight time 3h 1m
Altitude 38000
Route FOLZZ3 ALYRA DCT GRUBR/N0489F370 Y299 SEELO/N0485F390 DCT WAALT Q131 EARZZ DCT JAMIE Q133 PBERG CARTR5
Aircraft A35K/H-SDE2E3GHIJ3J4J5LM1ORWXY/LB1D1

Departure

Time 2026-05-06 16:00
Airport Miami International Airport (KMIA)

Arrival

Time 2026-05-06 19:01
Airport Montreal / Pierre Elliott Trudeau International Airport (CYUL)
Time Latitude Longitude Altitude Speed Heading
2026-05-06 15:34 25.79410 -80.28350 28 ft 0 kts 327°
2026-05-06 15:49 25.79408 -80.28349 28 ft 2 kts 327°
2026-05-06 15:50 25.79386 -80.28333 27 ft 4 kts 328°
2026-05-06 15:50 25.79363 -80.28317 25 ft 4 kts 320°
2026-05-06 15:50 25.79349 -80.28301 27 ft 2 kts 313°
2026-05-06 15:50 25.79338 -80.28281 25 ft 4 kts 258°
2026-05-06 15:51 25.79348 -80.28255 26 ft 4 kts 256°
2026-05-06 15:51 25.79349 -80.28247 26 ft 0 kts 265°
2026-05-06 15:53 25.79348 -80.28262 24 ft 4 kts 265°
2026-05-06 15:53 25.79345 -80.28302 28 ft 7 kts 266°
2026-05-06 15:53 25.79342 -80.28363 28 ft 9 kts 266°
2026-05-06 15:54 25.79337 -80.28441 29 ft 11 kts 266°
2026-05-06 15:54 25.79331 -80.28541 27 ft 15 kts 266°
2026-05-06 15:54 25.79351 -80.28662 30 ft 17 kts 296°
2026-05-06 15:54 25.79412 -80.28785 30 ft 19 kts 299°
2026-05-06 15:55 25.79479 -80.28916 30 ft 20 kts 299°
2026-05-06 15:55 25.79551 -80.29057 27 ft 22 kts 299°
2026-05-06 15:55 25.79625 -80.29202 29 ft 22 kts 299°
2026-05-06 15:55 25.79703 -80.29354 28 ft 20 kts 300°
2026-05-06 15:56 25.79751 -80.29448 28 ft 22 kts 300°
2026-05-06 15:56 25.79825 -80.29593 30 ft 20 kts 300°
2026-05-06 15:56 25.79890 -80.29724 25 ft 16 kts 296°
2026-05-06 15:56 25.79939 -80.29842 26 ft 15 kts 295°
2026-05-06 15:57 25.79970 -80.29937 24 ft 0 kts 287°
2026-05-06 15:57 25.79972 -80.29943 26 ft 4 kts 287°
2026-05-06 15:58 25.79991 -80.30013 24 ft 13 kts 287°
2026-05-06 15:58 25.80021 -80.30117 29 ft 13 kts 304°
2026-05-06 15:58 25.80082 -80.30121 26 ft 8 kts 49°
2026-05-06 15:58 25.80078 -80.30052 27 ft 11 kts 93°
2026-05-06 15:59 25.80078 -80.29952 26 ft 14 kts 87°
2026-05-06 15:59 25.80091 -80.29634 24 ft 77 kts 88°
2026-05-06 15:59 25.80124 -80.28784 31 ft 141 kts 88°
2026-05-06 15:59 25.80145 -80.27512 244 ft 178 kts 91°
2026-05-06 16:00 25.80073 -80.26073 816 ft 191 kts 98°
2026-05-06 16:00 25.79743 -80.24640 1599 ft 197 kts 109°
2026-05-06 16:00 25.79162 -80.23153 1933 ft 223 kts 115°
2026-05-06 16:00 25.78424 -80.21531 2311 ft 247 kts 116°
2026-05-06 16:01 25.77638 -80.19817 2958 ft 256 kts 117°
2026-05-06 16:01 25.76819 -80.18049 3743 ft 260 kts 116°
2026-05-06 16:01 25.75967 -80.16259 4515 ft 264 kts 118°
2026-05-06 16:01 25.75069 -80.14462 5284 ft 269 kts 119°
2026-05-06 16:02 25.74345 -80.12533 6006 ft 275 kts 102°
2026-05-06 16:02 25.74400 -80.10426 6718 ft 278 kts 72°
2026-05-06 16:02 25.75336 -80.08574 7506 ft 277 kts 49°
2026-05-06 16:02 25.76605 -80.06961 8354 ft 278 kts 46°
2026-05-06 16:03 25.77904 -80.05362 9230 ft 279 kts 46°
2026-05-06 16:03 25.79200 -80.03749 10096 ft 281 kts 46°
2026-05-06 16:03 25.80531 -80.02080 10551 ft 298 kts 46°
2026-05-06 16:03 25.81950 -80.00296 10833 ft 319 kts 46°
2026-05-06 16:04 25.83457 -79.98391 11121 ft 337 kts 46°
2026-05-06 16:04 25.85031 -79.96394 11541 ft 348 kts 46°
2026-05-06 16:04 25.86630 -79.94360 12144 ft 352 kts 46°
2026-05-06 16:04 25.88252 -79.92295 12793 ft 356 kts 46°
2026-05-06 16:05 25.89888 -79.90213 13407 ft 360 kts 46°
2026-05-06 16:05 25.91540 -79.88111 14043 ft 363 kts 46°
2026-05-06 16:05 25.93206 -79.85988 14602 ft 366 kts 46°
2026-05-06 16:05 25.94888 -79.83846 15148 ft 369 kts 45°
2026-05-06 16:06 25.96582 -79.81688 15660 ft 373 kts 45°
2026-05-06 16:06 25.98292 -79.79507 16199 ft 376 kts 45°
2026-05-06 16:06 26.00020 -79.77303 16717 ft 379 kts 45°
2026-05-06 16:06 26.01756 -79.75087 17235 ft 382 kts 45°
2026-05-06 16:07 26.03512 -79.72845 17757 ft 385 kts 45°
2026-05-06 16:07 26.05280 -79.70587 18274 ft 388 kts 44°
2026-05-06 16:07 26.07061 -79.68310 18720 ft 392 kts 44°
2026-05-06 16:07 26.08858 -79.66013 19139 ft 395 kts 44°
2026-05-06 16:08 26.10635 -79.63658 19572 ft 400 kts 48°
2026-05-06 16:08 26.12291 -79.61147 19998 ft 405 kts 50°
2026-05-06 16:08 26.13922 -79.58576 20444 ft 408 kts 50°
2026-05-06 16:08 26.15563 -79.55983 20894 ft 412 kts 50°
2026-05-06 16:09 26.17221 -79.53367 21341 ft 415 kts 50°
2026-05-06 16:09 26.18892 -79.50731 21810 ft 419 kts 50°
2026-05-06 16:09 26.20582 -79.48065 22197 ft 424 kts 50°
2026-05-06 16:09 26.22289 -79.45371 22656 ft 427 kts 50°
2026-05-06 16:10 26.23984 -79.42695 23130 ft 430 kts 50°
2026-05-06 16:10 26.25712 -79.39964 23621 ft 433 kts 50°
2026-05-06 16:10 26.27479 -79.37240 24009 ft 434 kts 47°
2026-05-06 16:10 26.29514 -79.34778 24420 ft 430 kts 37°
2026-05-06 16:11 26.31884 -79.32773 24898 ft 427 kts 29°
2026-05-06 16:11 26.34379 -79.30981 25397 ft 427 kts 27°
2026-05-06 16:11 26.36896 -79.29205 25906 ft 429 kts 27°
2026-05-06 16:11 26.39418 -79.27420 26423 ft 431 kts 27°
2026-05-06 16:12 26.41949 -79.25622 26934 ft 433 kts 27°
2026-05-06 16:12 26.44496 -79.23810 27438 ft 435 kts 27°
2026-05-06 16:12 26.47054 -79.21987 27938 ft 437 kts 27°
2026-05-06 16:12 26.49631 -79.20150 28350 ft 441 kts 27°
2026-05-06 16:13 26.52225 -79.18299 28827 ft 444 kts 26°
2026-05-06 16:13 26.54829 -79.16439 29312 ft 446 kts 26°
2026-05-06 16:13 26.57447 -79.14567 29771 ft 448 kts 26°
2026-05-06 16:13 26.60077 -79.12686 30224 ft 450 kts 26°
2026-05-06 16:14 26.62722 -79.10793 30568 ft 453 kts 26°
2026-05-06 16:14 26.65388 -79.08885 30907 ft 456 kts 26°
2026-05-06 16:14 26.68066 -79.06966 31241 ft 459 kts 26°
2026-05-06 16:14 26.70764 -79.05032 31600 ft 461 kts 26°
2026-05-06 16:15 26.73466 -79.03092 32020 ft 462 kts 26°
2026-05-06 16:15 26.76174 -79.01148 32332 ft 465 kts 26°
2026-05-06 16:15 26.78906 -78.99187 32605 ft 468 kts 26°
2026-05-06 16:15 26.81647 -78.97218 32909 ft 470 kts 26°
2026-05-06 16:16 26.84406 -78.95234 33230 ft 472 kts 26°
2026-05-06 16:16 26.87170 -78.93245 33537 ft 473 kts 26°
2026-05-06 16:16 26.89938 -78.91252 33956 ft 472 kts 26°
2026-05-06 16:16 26.92696 -78.89263 34354 ft 471 kts 26°
2026-05-06 16:17 26.95449 -78.87279 34648 ft 471 kts 26°
2026-05-06 16:17 26.98206 -78.85291 34939 ft 471 kts 26°
2026-05-06 16:17 27.00962 -78.83303 35225 ft 471 kts 26°
2026-05-06 16:17 27.03720 -78.81311 35525 ft 472 kts 26°
2026-05-06 16:18 27.06488 -78.79312 35745 ft 474 kts 26°
2026-05-06 16:18 27.09260 -78.77309 36002 ft 474 kts 26°
2026-05-06 16:18 27.12031 -78.75305 36278 ft 474 kts 26°
2026-05-06 16:18 27.14803 -78.73299 36541 ft 474 kts 26°
2026-05-06 16:19 27.17576 -78.71290 36797 ft 474 kts 26°
2026-05-06 16:19 27.20350 -78.69281 37032 ft 475 kts 26°
2026-05-06 16:19 27.25933 -78.65333 37118 ft 469 kts 21°
2026-05-06 16:20 27.31926 -78.62941 37117 ft 450 kts
2026-05-06 16:20 27.38068 -78.62074 37118 ft 448 kts
2026-05-06 16:21 27.44263 -78.61283 37119 ft 448 kts
2026-05-06 16:21 27.50460 -78.60484 37119 ft 448 kts
2026-05-06 16:22 27.56655 -78.59680 37119 ft 448 kts
2026-05-06 16:22 27.62853 -78.58874 37121 ft 448 kts
2026-05-06 16:23 27.69051 -78.58068 37115 ft 449 kts
2026-05-06 16:23 27.75253 -78.57260 37122 ft 448 kts
2026-05-06 16:24 27.81454 -78.56451 37123 ft 448 kts
2026-05-06 16:24 27.87651 -78.55642 37123 ft 448 kts
2026-05-06 16:25 27.93852 -78.54830 37122 ft 449 kts
2026-05-06 16:25 28.00058 -78.54018 37124 ft 449 kts
2026-05-06 16:26 28.06262 -78.53205 37121 ft 449 kts
2026-05-06 16:26 28.12465 -78.52391 37124 ft 449 kts
2026-05-06 16:27 28.18672 -78.51575 37138 ft 449 kts
2026-05-06 16:27 28.24883 -78.50759 37124 ft 450 kts
2026-05-06 16:28 28.31100 -78.49940 37124 ft 450 kts
2026-05-06 16:28 28.37315 -78.49121 37124 ft 450 kts
2026-05-06 16:29 28.43534 -78.48300 37127 ft 450 kts
2026-05-06 16:29 28.49711 -78.47483 37129 ft 450 kts 360°
2026-05-06 16:30 28.54924 -78.46794 37126 ft 450 kts 360°
2026-05-06 16:30 28.62159 -78.45836 37127 ft 450 kts 360°
2026-05-06 16:31 28.68382 -78.45010 37127 ft 450 kts 360°
2026-05-06 16:31 28.74610 -78.44183 37127 ft 450 kts 360°
2026-05-06 16:32 28.80836 -78.43355 37130 ft 451 kts 359°
2026-05-06 16:32 28.87064 -78.42527 37132 ft 451 kts 359°
2026-05-06 16:33 28.93292 -78.41697 37130 ft 451 kts 359°
2026-05-06 16:34 29.02633 -78.40450 37134 ft 451 kts 360°
2026-05-06 16:34 29.08861 -78.39617 37134 ft 451 kts 359°
2026-05-06 16:35 29.15096 -78.38783 37130 ft 451 kts 359°
2026-05-06 16:35 29.21331 -78.37947 37130 ft 451 kts 359°
2026-05-06 16:36 29.27567 -78.37111 37133 ft 451 kts 359°
2026-05-06 16:36 29.33802 -78.36273 37138 ft 451 kts 359°
2026-05-06 16:37 29.40032 -78.35435 37139 ft 451 kts 359°
2026-05-06 16:37 29.46260 -78.34690 37138 ft 446 kts 354°
2026-05-06 16:38 29.52259 -78.35440 37138 ft 432 kts 340°
2026-05-06 16:38 29.58049 -78.37232 37135 ft 430 kts 338°
2026-05-06 16:39 29.63799 -78.39148 37136 ft 430 kts 338°
2026-05-06 16:39 29.69537 -78.41050 37137 ft 429 kts 338°
2026-05-06 16:40 29.75276 -78.42930 37131 ft 429 kts 338°
2026-05-06 16:40 29.81021 -78.44804 37134 ft 429 kts 338°
2026-05-06 16:41 29.86760 -78.46677 37132 ft 429 kts 338°
2026-05-06 16:41 29.92503 -78.48555 37134 ft 428 kts 338°
2026-05-06 16:42 29.98229 -78.50429 37133 ft 427 kts 338°
2026-05-06 16:42 30.03946 -78.52303 37132 ft 427 kts 338°
2026-05-06 16:43 30.09665 -78.54180 37133 ft 427 kts 338°
2026-05-06 16:43 30.15564 -78.55428 37133 ft 438 kts 350°
2026-05-06 16:44 30.21737 -78.55018 37133 ft 448 kts 358°
2026-05-06 16:44 30.26890 -78.54294 37132 ft 450 kts 359°
2026-05-06 16:45 30.34147 -78.53196 37129 ft 450 kts 359°
2026-05-06 16:45 30.39308 -78.52434 37129 ft 450 kts 359°
2026-05-06 16:46 30.45515 -78.51524 37129 ft 450 kts 359°
2026-05-06 16:46 30.51738 -78.50511 37129 ft 453 kts 359°
2026-05-06 16:47 30.57974 -78.49474 37128 ft 453 kts 359°
2026-05-06 16:47 30.64221 -78.48448 37128 ft 453 kts 359°
2026-05-06 16:48 30.70467 -78.47432 37296 ft 454 kts 359°
2026-05-06 16:48 30.73593 -78.46924 37613 ft 453 kts 359°
2026-05-06 16:48 30.76705 -78.46415 37970 ft 451 kts 359°
2026-05-06 16:48 30.79807 -78.45908 38264 ft 449 kts 359°
2026-05-06 16:49 30.82901 -78.45403 38515 ft 449 kts 358°
2026-05-06 16:49 30.85991 -78.44901 38743 ft 448 kts 358°
2026-05-06 16:49 30.89077 -78.44399 38947 ft 448 kts 358°
2026-05-06 16:49 30.92164 -78.43896 39084 ft 449 kts 358°
2026-05-06 16:50 30.95266 -78.43393 39123 ft 451 kts 358°
2026-05-06 16:50 31.01439 -78.42386 39136 ft 451 kts 358°
2026-05-06 16:51 31.07638 -78.41368 39127 ft 449 kts 358°
2026-05-06 16:51 31.13829 -78.40352 39112 ft 449 kts 358°
2026-05-06 16:52 31.20016 -78.39337 39117 ft 449 kts 358°
2026-05-06 16:52 31.26202 -78.38321 39126 ft 449 kts 358°
2026-05-06 16:53 31.32381 -78.37303 39124 ft 448 kts 358°
2026-05-06 16:53 31.38548 -78.36287 39113 ft 447 kts 358°
2026-05-06 16:54 31.44709 -78.35271 39117 ft 447 kts 358°
2026-05-06 16:54 31.50874 -78.34254 39119 ft 447 kts 358°
2026-05-06 16:55 31.57037 -78.33234 39127 ft 447 kts 357°
2026-05-06 16:55 31.63182 -78.32214 39119 ft 446 kts 357°
2026-05-06 16:56 31.69320 -78.31197 39111 ft 446 kts 357°
2026-05-06 16:56 31.75462 -78.30178 39113 ft 446 kts 357°
2026-05-06 16:57 31.81603 -78.29157 39130 ft 446 kts 357°
2026-05-06 16:57 31.87740 -78.28134 39114 ft 445 kts 357°
2026-05-06 16:58 31.93870 -78.27112 39112 ft 445 kts 357°
2026-05-06 16:58 32.00001 -78.26089 39112 ft 445 kts 357°
2026-05-06 16:59 32.06134 -78.25007 39115 ft 448 kts 359°
2026-05-06 16:59 32.12273 -78.23655 39114 ft 449 kts 359°
2026-05-06 17:00 32.18410 -78.22263 39112 ft 449 kts 359°
2026-05-06 17:00 32.24542 -78.20912 39116 ft 448 kts 359°
2026-05-06 17:01 32.30631 -78.19594 39115 ft 448 kts 359°
2026-05-06 17:01 32.36767 -78.18270 39119 ft 449 kts 359°
2026-05-06 17:02 32.42917 -78.16940 39113 ft 449 kts 359°
2026-05-06 17:02 32.49065 -78.15606 39112 ft 449 kts 359°
2026-05-06 17:03 32.55219 -78.14268 39113 ft 450 kts 359°
2026-05-06 17:03 32.61373 -78.12928 39121 ft 450 kts 359°
2026-05-06 17:04 32.67534 -78.11587 39110 ft 450 kts 359°
2026-05-06 17:04 32.73701 -78.10241 39110 ft 451 kts 359°
2026-05-06 17:05 32.79869 -78.08893 39110 ft 451 kts 359°
2026-05-06 17:05 32.86036 -78.07543 39108 ft 451 kts 359°
2026-05-06 17:06 32.92202 -78.06191 39105 ft 451 kts 359°
2026-05-06 17:06 32.98371 -78.04837 39105 ft 451 kts 359°
2026-05-06 17:07 33.04540 -78.03482 39105 ft 451 kts 359°
2026-05-06 17:07 33.10705 -78.02125 39135 ft 451 kts 359°
2026-05-06 17:08 33.16847 -78.00767 39105 ft 448 kts 358°
2026-05-06 17:08 33.22969 -77.99415 39102 ft 447 kts 358°
2026-05-06 17:09 33.29081 -77.98067 39106 ft 447 kts 358°
2026-05-06 17:09 33.35195 -77.96716 39099 ft 447 kts 358°
2026-05-06 17:10 33.41259 -77.95368 39102 ft 445 kts 359°
2026-05-06 17:10 33.47322 -77.94013 39099 ft 442 kts 359°
2026-05-06 17:11 33.53362 -77.92675 39085 ft 442 kts 359°
2026-05-06 17:11 33.59405 -77.91336 39093 ft 441 kts 359°
2026-05-06 17:12 33.65445 -77.89991 39099 ft 441 kts 358°
2026-05-06 17:12 33.71471 -77.88644 39094 ft 440 kts 358°
2026-05-06 17:13 33.77492 -77.87299 39090 ft 440 kts 358°
2026-05-06 17:13 33.83514 -77.85910 39088 ft 442 kts 359°
2026-05-06 17:14 33.89535 -77.84373 39100 ft 442 kts 360°
2026-05-06 17:14 33.95550 -77.82822 39086 ft 442 kts 359°
2026-05-06 17:15 34.01560 -77.81294 39087 ft 442 kts 359°
2026-05-06 17:15 34.07577 -77.79775 39083 ft 442 kts 359°
2026-05-06 17:16 34.13593 -77.78257 39096 ft 442 kts 359°
2026-05-06 17:16 34.19607 -77.76735 39078 ft 441 kts 359°
2026-05-06 17:17 34.25612 -77.75212 39070 ft 441 kts 359°
2026-05-06 17:17 34.31621 -77.73688 39071 ft 441 kts 359°
2026-05-06 17:18 34.37634 -77.72159 39086 ft 441 kts 359°
2026-05-06 17:18 34.43648 -77.70628 39062 ft 442 kts 359°
2026-05-06 17:19 34.49662 -77.69095 39062 ft 442 kts 359°
2026-05-06 17:19 34.55678 -77.67354 39062 ft 453 kts
2026-05-06 17:19 34.58648 -77.65916 39067 ft 464 kts 11°
2026-05-06 17:20 34.61587 -77.64269 39064 ft 467 kts 12°
2026-05-06 17:20 34.67407 -77.60806 39064 ft 471 kts 13°
2026-05-06 17:21 34.73272 -77.57250 39059 ft 470 kts 13°
2026-05-06 17:21 34.79118 -77.53719 39064 ft 468 kts 13°
2026-05-06 17:22 34.84957 -77.50215 39065 ft 468 kts 13°
2026-05-06 17:22 34.90807 -77.46711 39064 ft 470 kts 13°
2026-05-06 17:23 34.96683 -77.43184 39062 ft 471 kts 13°
2026-05-06 17:23 35.02568 -77.39637 39059 ft 472 kts 13°
2026-05-06 17:24 35.08450 -77.36087 39059 ft 472 kts 13°
2026-05-06 17:24 35.14340 -77.32528 39058 ft 473 kts 13°
2026-05-06 17:25 35.20235 -77.28960 39047 ft 473 kts 13°
2026-05-06 17:25 35.26129 -77.25388 39047 ft 473 kts 13°
2026-05-06 17:26 35.32025 -77.21809 39035 ft 472 kts 13°
2026-05-06 17:26 35.37887 -77.18239 39040 ft 469 kts 13°
2026-05-06 17:27 35.43685 -77.14705 39037 ft 468 kts 13°
2026-05-06 17:27 35.49524 -77.11146 39036 ft 468 kts 13°
2026-05-06 17:28 35.55359 -77.07583 39062 ft 469 kts 14°
2026-05-06 17:28 35.61203 -77.04009 39035 ft 470 kts 14°
2026-05-06 17:29 35.67065 -77.00415 39036 ft 471 kts 14°
2026-05-06 17:29 35.72925 -76.96814 39037 ft 471 kts 14°
2026-05-06 17:30 35.78784 -76.93209 39055 ft 471 kts 14°
2026-05-06 17:30 35.84656 -76.89593 39024 ft 473 kts 14°
2026-05-06 17:31 35.90546 -76.85960 39029 ft 473 kts 14°
2026-05-06 17:31 35.96464 -76.82587 39033 ft 463 kts 10°
2026-05-06 17:32 36.02427 -76.79634 39059 ft 462 kts
2026-05-06 17:32 36.08404 -76.76668 39030 ft 464 kts
2026-05-06 17:33 36.14385 -76.73613 39031 ft 465 kts 10°
2026-05-06 17:33 36.19350 -76.71040 39029 ft 466 kts 10°
2026-05-06 17:34 36.25325 -76.67933 39034 ft 466 kts 10°
2026-05-06 17:34 36.31313 -76.64821 39017 ft 468 kts 10°
2026-05-06 17:35 36.37320 -76.61696 39014 ft 468 kts 10°
2026-05-06 17:35 36.43323 -76.58565 39007 ft 468 kts 10°
2026-05-06 17:36 36.52346 -76.53853 39005 ft 471 kts 10°
2026-05-06 17:36 36.58398 -76.50688 39022 ft 472 kts 11°
2026-05-06 17:37 36.64446 -76.47516 39023 ft 471 kts 11°
2026-05-06 17:37 36.70438 -76.44364 39045 ft 470 kts 11°
2026-05-06 17:38 36.76484 -76.41186 39016 ft 473 kts 11°
2026-05-06 17:38 36.82548 -76.37991 39027 ft 474 kts 11°
2026-05-06 17:39 36.88620 -76.34783 39047 ft 474 kts 11°
2026-05-06 17:39 36.94692 -76.31570 39050 ft 474 kts 11°
2026-05-06 17:40 37.00787 -76.28345 39044 ft 477 kts 11°
2026-05-06 17:40 37.06894 -76.25104 38990 ft 477 kts 11°
2026-05-06 17:41 37.13005 -76.21853 38988 ft 477 kts 11°
2026-05-06 17:41 37.19121 -76.18596 38984 ft 479 kts 11°
2026-05-06 17:42 37.25277 -76.15316 38977 ft 481 kts 11°
2026-05-06 17:42 37.31427 -76.12026 38962 ft 480 kts 11°
2026-05-06 17:43 37.37565 -76.08734 38983 ft 479 kts 11°
2026-05-06 17:43 37.43715 -76.05439 38961 ft 482 kts 11°
2026-05-06 17:44 37.49887 -76.02124 38953 ft 482 kts 11°
2026-05-06 17:44 37.56059 -75.98800 38949 ft 482 kts 11°
2026-05-06 17:45 37.62136 -75.95006 38948 ft 497 kts 20°
2026-05-06 17:45 37.67997 -75.90307 38968 ft 500 kts 21°
2026-05-06 17:46 37.73816 -75.85456 38970 ft 501 kts 21°
2026-05-06 17:46 37.79631 -75.80591 38993 ft 501 kts 21°
2026-05-06 17:47 37.85472 -75.75724 38964 ft 504 kts 21°
2026-05-06 17:47 37.91316 -75.70851 38976 ft 503 kts 21°
2026-05-06 17:48 37.97156 -75.65973 38952 ft 503 kts 21°
2026-05-06 17:48 38.02996 -75.61088 38963 ft 504 kts 21°
2026-05-06 17:49 38.08840 -75.56197 38953 ft 508 kts 21°
2026-05-06 17:49 38.14743 -75.51238 38953 ft 509 kts 21°
2026-05-06 17:50 38.20645 -75.46267 38954 ft 509 kts 21°
2026-05-06 17:50 38.26690 -75.41821 38955 ft 490 kts
2026-05-06 17:51 38.29858 -75.40468 38956 ft 471 kts
2026-05-06 17:51 38.33033 -75.39600 38954 ft 465 kts 358°
2026-05-06 17:51 38.39377 -75.38196 38952 ft 462 kts 356°
2026-05-06 17:52 38.45725 -75.36907 38960 ft 462 kts 355°
2026-05-06 17:52 38.52097 -75.35594 38944 ft 466 kts 356°
2026-05-06 17:53 38.58501 -75.34238 38944 ft 466 kts 356°
2026-05-06 17:53 38.64903 -75.32867 38941 ft 466 kts 356°
2026-05-06 17:54 38.71321 -75.31495 38936 ft 469 kts 356°
2026-05-06 17:54 38.77765 -75.29459 38934 ft 493 kts
2026-05-06 17:55 38.84031 -75.25495 38926 ft 507 kts 16°
2026-05-06 17:55 38.90224 -75.21072 38932 ft 512 kts 17°
2026-05-06 17:56 38.96465 -75.16560 38902 ft 516 kts 17°
2026-05-06 17:56 39.02726 -75.12060 38896 ft 516 kts 17°
2026-05-06 17:57 39.08999 -75.07570 38911 ft 516 kts 16°
2026-05-06 17:57 39.15287 -75.03074 38912 ft 517 kts 16°
2026-05-06 17:58 39.21518 -74.98600 38932 ft 515 kts 16°
2026-05-06 17:58 39.27709 -74.93805 38954 ft 525 kts 21°
2026-05-06 17:59 39.33739 -74.88426 38968 ft 528 kts 22°
2026-05-06 17:59 39.36734 -74.85695 39077 ft 526 kts 23°
2026-05-06 17:59 39.39401 -74.83253 39178 ft 525 kts 23°
2026-05-06 18:00 39.42394 -74.80507 38992 ft 529 kts 23°
2026-05-06 18:00 39.45406 -74.77745 38923 ft 531 kts 23°
2026-05-06 18:00 39.51449 -74.72209 38914 ft 532 kts 23°
2026-05-06 18:01 39.57490 -74.66665 38911 ft 533 kts 23°
2026-05-06 18:01 39.63541 -74.61105 38911 ft 533 kts 23°
2026-05-06 18:02 39.69588 -74.55538 38898 ft 533 kts 23°
2026-05-06 18:02 39.75629 -74.49963 38887 ft 533 kts 23°
2026-05-06 18:03 39.81672 -74.44375 38883 ft 533 kts 23°
2026-05-06 18:03 39.87714 -74.38774 38889 ft 533 kts 23°
2026-05-06 18:04 39.93755 -74.33163 38873 ft 533 kts 23°
2026-05-06 18:04 39.99782 -74.27548 38892 ft 532 kts 23°
2026-05-06 18:05 40.05792 -74.21941 38914 ft 532 kts 23°
2026-05-06 18:05 40.11809 -74.16321 38881 ft 532 kts 23°
2026-05-06 18:06 40.17825 -74.10682 38876 ft 532 kts 23°
2026-05-06 18:06 40.23840 -74.05030 38901 ft 532 kts 23°
2026-05-06 18:07 40.29861 -73.99362 38861 ft 533 kts 23°
2026-05-06 18:07 40.35999 -73.94159 38876 ft 513 kts 13°
2026-05-06 18:08 40.42328 -73.90075 38870 ft 509 kts 12°
2026-05-06 18:08 40.48741 -73.86129 38873 ft 510 kts 12°
2026-05-06 18:09 40.55178 -73.82178 38879 ft 511 kts 12°
2026-05-06 18:09 40.61620 -73.78244 38864 ft 505 kts
2026-05-06 18:10 40.64897 -73.76796 38877 ft 490 kts
2026-05-06 18:10 40.68188 -73.75701 38873 ft 487 kts 360°
2026-05-06 18:10 40.74797 -73.73731 38852 ft 486 kts 359°
2026-05-06 18:11 40.80325 -73.72152 38854 ft 486 kts 358°
2026-05-06 18:11 40.88014 -73.69940 38862 ft 488 kts 359°
2026-05-06 18:12 40.94655 -73.68006 38860 ft 489 kts 359°
2026-05-06 18:12 41.01295 -73.66057 38859 ft 489 kts 359°
2026-05-06 18:13 41.07937 -73.64108 38860 ft 489 kts 359°
2026-05-06 18:13 41.14576 -73.62151 38859 ft 489 kts 360°
2026-05-06 18:14 41.21213 -73.60191 38860 ft 488 kts 359°
2026-05-06 18:14 41.27851 -73.58296 38858 ft 484 kts 356°
2026-05-06 18:15 41.34485 -73.57224 38859 ft 479 kts 353°
2026-05-06 18:15 41.41113 -73.56318 38860 ft 479 kts 353°
2026-05-06 18:16 41.47750 -73.55442 38859 ft 481 kts 353°
2026-05-06 18:16 41.54415 -73.54555 38834 ft 482 kts 353°
2026-05-06 18:17 41.61085 -73.53648 38827 ft 482 kts 353°
2026-05-06 18:17 41.67762 -73.52734 38823 ft 482 kts 353°
2026-05-06 18:18 41.74435 -73.51814 38822 ft 482 kts 353°
2026-05-06 18:18 41.81114 -73.50899 38843 ft 482 kts 353°
2026-05-06 18:19 41.87803 -73.49990 38838 ft 485 kts 353°
2026-05-06 18:19 41.94525 -73.49074 38828 ft 486 kts 353°
2026-05-06 18:20 42.00115 -73.48302 38816 ft 486 kts 353°
2026-05-06 18:20 42.06853 -73.47370 38802 ft 487 kts 354°
2026-05-06 18:21 42.13623 -73.46437 38808 ft 490 kts 354°
2026-05-06 18:21 42.20405 -73.45497 38804 ft 490 kts 354°
2026-05-06 18:22 42.27193 -73.44560 38796 ft 492 kts 354°
2026-05-06 18:22 42.34017 -73.43611 38792 ft 493 kts 354°
2026-05-06 18:23 42.40851 -73.42655 38793 ft 493 kts 354°
2026-05-06 18:23 42.47693 -73.41695 38795 ft 495 kts 355°
2026-05-06 18:24 42.54563 -73.40737 38791 ft 497 kts 355°
2026-05-06 18:24 42.61440 -73.39772 38812 ft 497 kts 355°
2026-05-06 18:25 42.68325 -73.38804 38783 ft 498 kts 355°
2026-05-06 18:25 42.75225 -73.37808 38797 ft 499 kts 355°
2026-05-06 18:26 42.82126 -73.36841 38822 ft 499 kts 355°
2026-05-06 18:26 42.89042 -73.35877 38796 ft 501 kts 355°
2026-05-06 18:27 42.95981 -73.34899 38787 ft 501 kts 355°
2026-05-06 18:27 43.02832 -73.34713 38597 ft 486 kts 347°
2026-05-06 18:28 43.06196 -73.34943 38357 ft 484 kts 346°
2026-05-06 18:28 43.09562 -73.35234 38069 ft 484 kts 346°
2026-05-06 18:28 43.12879 -73.35548 37805 ft 485 kts 346°
2026-05-06 18:28 43.16253 -73.35875 37568 ft 486 kts 346°
2026-05-06 18:29 43.19626 -73.36197 37281 ft 487 kts 346°
2026-05-06 18:29 43.23021 -73.36515 37049 ft 489 kts 346°
2026-05-06 18:29 43.26425 -73.36828 36792 ft 491 kts 347°
2026-05-06 18:29 43.29838 -73.37138 36535 ft 493 kts 347°
2026-05-06 18:30 43.33254 -73.37446 36190 ft 490 kts 347°
2026-05-06 18:30 43.36643 -73.37745 35645 ft 487 kts 347°
2026-05-06 18:30 43.40010 -73.38042 35206 ft 482 kts 348°
2026-05-06 18:30 43.43345 -73.38339 34715 ft 479 kts 348°
2026-05-06 18:31 43.46658 -73.38636 34247 ft 475 kts 348°
2026-05-06 18:31 43.49947 -73.38933 33779 ft 472 kts 348°
2026-05-06 18:31 43.53208 -73.39229 33268 ft 468 kts 348°
2026-05-06 18:31 43.56442 -73.39522 32810 ft 463 kts 349°
2026-05-06 18:32 43.59642 -73.39810 32373 ft 458 kts 349°
2026-05-06 18:32 43.62805 -73.40096 31933 ft 454 kts 349°
2026-05-06 18:32 43.65947 -73.40384 31481 ft 452 kts 349°
2026-05-06 18:32 43.69078 -73.40674 31032 ft 450 kts 349°
2026-05-06 18:33 43.72203 -73.40972 30584 ft 448 kts 348°
2026-05-06 18:33 43.75299 -73.41323 30132 ft 446 kts 348°
2026-05-06 18:33 43.78387 -73.41687 29683 ft 444 kts 348°
2026-05-06 18:33 43.81458 -73.42045 29197 ft 442 kts 349°
2026-05-06 18:34 43.84518 -73.42396 28755 ft 440 kts 348°
2026-05-06 18:34 43.87557 -73.42742 28319 ft 437 kts 348°
2026-05-06 18:34 43.90573 -73.43087 27882 ft 434 kts 348°
2026-05-06 18:34 43.93569 -73.43428 27453 ft 430 kts 348°
2026-05-06 18:35 43.96531 -73.43765 27025 ft 426 kts 348°
2026-05-06 18:35 43.99480 -73.44102 26608 ft 423 kts 348°
2026-05-06 18:35 44.02413 -73.44438 26184 ft 421 kts 348°
2026-05-06 18:35 44.05323 -73.44772 25754 ft 419 kts 348°
2026-05-06 18:36 44.08217 -73.45103 25321 ft 415 kts 348°
2026-05-06 18:36 44.11083 -73.45431 24907 ft 412 kts 348°
2026-05-06 18:36 44.13927 -73.45757 24491 ft 408 kts 348°
2026-05-06 18:36 44.16747 -73.46081 24078 ft 406 kts 348°
2026-05-06 18:37 44.19555 -73.46405 23658 ft 404 kts 348°
2026-05-06 18:37 44.22354 -73.46728 23181 ft 402 kts 348°
2026-05-06 18:37 44.25124 -73.47045 22742 ft 397 kts 348°
2026-05-06 18:37 44.27866 -73.47360 22323 ft 393 kts 348°
2026-05-06 18:38 44.30566 -73.47671 21913 ft 387 kts 348°
2026-05-06 18:38 44.33237 -73.47979 21509 ft 383 kts 348°
2026-05-06 18:38 44.35879 -73.48285 21098 ft 379 kts 348°
2026-05-06 18:38 44.38504 -73.48590 20715 ft 379 kts 347°
2026-05-06 18:39 44.41128 -73.48896 20297 ft 378 kts 348°
2026-05-06 18:39 44.43743 -73.49203 19882 ft 376 kts 348°
2026-05-06 18:39 44.46304 -73.49500 19481 ft 374 kts 348°
2026-05-06 18:40 44.51467 -73.50099 18695 ft 370 kts 348°
2026-05-06 18:40 44.54028 -73.50397 18289 ft 369 kts 348°
2026-05-06 18:40 44.56584 -73.50694 17852 ft 367 kts 348°
2026-05-06 18:40 44.59124 -73.50989 17440 ft 365 kts 348°
2026-05-06 18:41 44.61643 -73.51282 17135 ft 363 kts 348°
2026-05-06 18:41 44.64152 -73.51576 16776 ft 361 kts 348°
2026-05-06 18:41 44.66648 -73.51868 16390 ft 358 kts 348°
2026-05-06 18:41 44.69122 -73.52157 15995 ft 356 kts 348°
2026-05-06 18:42 44.71582 -73.52445 15616 ft 354 kts 347°
2026-05-06 18:42 44.74026 -73.52739 15216 ft 352 kts 347°
2026-05-06 18:42 44.76455 -73.53028 14827 ft 350 kts 347°
2026-05-06 18:42 44.78876 -73.53316 14450 ft 348 kts 348°
2026-05-06 18:43 44.81275 -73.53601 14060 ft 345 kts 348°
2026-05-06 18:43 44.83658 -73.53885 13688 ft 343 kts 348°
2026-05-06 18:43 44.86032 -73.54169 13272 ft 341 kts 348°
2026-05-06 18:43 44.88390 -73.54444 12893 ft 339 kts 348°
2026-05-06 18:44 44.90735 -73.54697 12516 ft 337 kts 348°
2026-05-06 18:44 44.93066 -73.54946 12148 ft 335 kts 348°
2026-05-06 18:44 44.95382 -73.55198 11770 ft 333 kts 348°
2026-05-06 18:44 44.97679 -73.55448 11410 ft 331 kts 348°
2026-05-06 18:45 44.99967 -73.55699 11035 ft 329 kts 348°
2026-05-06 18:45 45.02240 -73.55950 10708 ft 324 kts 348°
2026-05-06 18:45 45.04442 -73.56186 10584 ft 311 kts 348°
2026-05-06 18:45 45.06555 -73.56412 10466 ft 299 kts 348°
2026-05-06 18:46 45.08602 -73.56636 10305 ft 293 kts 347°
2026-05-06 18:46 45.10633 -73.56871 9979 ft 293 kts 347°
2026-05-06 18:46 45.12683 -73.57105 9651 ft 300 kts 348°
2026-05-06 18:46 45.14775 -73.57344 9326 ft 302 kts 348°
2026-05-06 18:47 45.16869 -73.57576 9017 ft 301 kts 349°
2026-05-06 18:47 45.18949 -73.57803 8699 ft 299 kts 349°
2026-05-06 18:47 45.21012 -73.58030 8399 ft 296 kts 349°
2026-05-06 18:47 45.23034 -73.58253 8094 ft 294 kts 350°
2026-05-06 18:48 45.25065 -73.58478 7797 ft 292 kts 350°
2026-05-06 18:48 45.27081 -73.58702 7511 ft 289 kts 351°
2026-05-06 18:48 45.29075 -73.58923 7196 ft 286 kts 351°
2026-05-06 18:48 45.31046 -73.59147 6904 ft 283 kts 352°
2026-05-06 18:49 45.33007 -73.59362 6599 ft 281 kts 352°
2026-05-06 18:49 45.34945 -73.59572 6312 ft 278 kts 353°
2026-05-06 18:49 45.36867 -73.59781 6008 ft 276 kts 353°
2026-05-06 18:49 45.38779 -73.59809 5718 ft 275 kts
2026-05-06 18:50 45.40557 -73.58904 5438 ft 273 kts 28°
2026-05-06 18:50 45.42123 -73.57435 5233 ft 263 kts 32°
2026-05-06 18:50 45.43589 -73.55981 5118 ft 250 kts 32°
2026-05-06 18:50 45.44989 -73.54608 5012 ft 238 kts 32°
2026-05-06 18:51 45.46318 -73.53314 4883 ft 227 kts 31°
2026-05-06 18:51 45.47306 -73.52354 4771 ft 223 kts 31°
2026-05-06 18:51 45.48581 -73.51122 4569 ft 220 kts 31°
2026-05-06 18:51 45.49846 -73.49905 4362 ft 219 kts 31°
2026-05-06 18:52 45.51107 -73.48692 4141 ft 218 kts 32°
2026-05-06 18:52 45.52363 -73.47480 3952 ft 218 kts 32°
2026-05-06 18:52 45.53622 -73.46273 3879 ft 218 kts 32°
2026-05-06 18:52 45.54874 -73.45063 3808 ft 217 kts 32°
2026-05-06 18:53 45.56111 -73.43847 3744 ft 215 kts 34°
2026-05-06 18:53 45.57267 -73.42483 3665 ft 216 kts 40°
2026-05-06 18:53 45.58383 -73.41040 3581 ft 217 kts 40°
2026-05-06 18:53 45.59525 -73.39637 3512 ft 216 kts 33°
2026-05-06 18:54 45.60929 -73.39006 3458 ft 212 kts 360°
2026-05-06 18:54 45.62319 -73.39580 3400 ft 211 kts 327°
2026-05-06 18:54 45.63400 -73.40996 3366 ft 211 kts 312°
2026-05-06 18:54 45.64366 -73.42582 3299 ft 212 kts 311°
2026-05-06 18:55 45.65210 -73.44302 3207 ft 213 kts 296°
2026-05-06 18:55 45.65686 -73.46308 3098 ft 213 kts 287°
2026-05-06 18:55 45.66024 -73.48370 2995 ft 214 kts 279°
2026-05-06 18:55 45.65676 -73.50427 3007 ft 218 kts 242°
2026-05-06 18:56 45.64717 -73.52109 3022 ft 220 kts 224°
2026-05-06 18:56 45.63560 -73.53548 3034 ft 220 kts 222°
2026-05-06 18:56 45.62425 -73.55015 3045 ft 220 kts 225°
2026-05-06 18:56 45.61307 -73.56514 3048 ft 221 kts 225°
2026-05-06 18:57 45.60181 -73.58009 3057 ft 221 kts 224°
2026-05-06 18:57 45.59051 -73.59495 3053 ft 221 kts 224°
2026-05-06 18:57 45.57926 -73.60975 2816 ft 218 kts 224°
2026-05-06 18:57 45.56823 -73.62429 2518 ft 213 kts 224°
2026-05-06 18:58 45.55751 -73.63839 2199 ft 207 kts 223°
2026-05-06 18:58 45.54710 -73.65210 1908 ft 201 kts 223°
2026-05-06 18:58 45.53700 -73.66538 1633 ft 193 kts 222°
2026-05-06 18:58 45.52744 -73.67794 1369 ft 181 kts 222°
2026-05-06 18:59 45.51854 -73.68963 1116 ft 167 kts 222°
2026-05-06 18:59 45.51032 -73.70043 860 ft 154 kts 222°
2026-05-06 18:59 45.50272 -73.71040 659 ft 144 kts 222°
2026-05-06 18:59 45.49561 -73.71974 460 ft 135 kts 222°
2026-05-06 19:00 45.48871 -73.72879 310 ft 135 kts 222°
2026-05-06 19:00 45.48177 -73.73790 159 ft 136 kts 223°
2026-05-06 19:00 45.47508 -73.74668 121 ft 118 kts 222°
2026-05-06 19:00 45.47145 -73.75144 121 ft 97 kts 223°
2026-05-06 19:01 45.46634 -73.75813 121 ft 53 kts 223°
2026-05-06 19:01 45.46424 -73.76088 120 ft 37 kts 223°
2026-05-06 19:01 45.46337 -73.76201 114 ft 7 kts 223°
2026-05-06 19:01 45.46276 -73.76228 117 ft 12 kts 175°
2026-05-06 19:02 45.46213 -73.76197 116 ft 0 kts 159°
2026-05-06 19:02 45.46210 -73.76195 117 ft 2 kts 159°
2026-05-06 19:02 45.46181 -73.76180 116 ft 7 kts 159°
2026-05-06 19:02 45.46126 -73.76132 116 ft 12 kts 130°
2026-05-06 19:03 45.46119 -73.75989 114 ft 17 kts 102°
2026-05-06 19:03 45.46044 -73.75852 111 ft 17 kts 122°
2026-05-06 19:03 45.46048 -73.75718 114 ft 15 kts 79°
2026-05-06 19:03 45.46062 -73.75562 116 ft 16 kts 86°
2026-05-06 19:04 45.46066 -73.75419 115 ft 10 kts 89°
2026-05-06 19:04 45.46040 -73.75322 116 ft 12 kts 118°
2026-05-06 19:04 45.46006 -73.75207 116 ft 11 kts 96°
2026-05-06 19:04 45.45981 -73.75128 118 ft 5 kts 166°
2026-05-06 19:05 45.45935 -73.75134 115 ft 7 kts 181°
2026-05-06 19:05 45.45933 -73.75134 115 ft 0 kts 180°